Torna al catalogo

ALSAT 2B

AttivoScienzaSSO
NORAD 41786·PAYLOAD·🇩🇿 Algeria

Lanciato Sep 26, 2016 da Satish Dhawan Space Centre

Loading…

Prossimi Passaggi (prossime 24 ore)

TLE

AggiornatoSource: Space-Track

Epoca: Sep 14, 2026, 14:18 UTC

1 41786U 16059D   26257.59641563  .00000273  00000-0  52453-4 0  9993
2 41786  97.9812 318.1134 0000820  64.2705 295.8587 14.70963642533916

Traccia ALSAT 2B in tempo reale con AllMySat

Download on the App Store